When you browse on this site, cookies collect data to enhance your experience and personalize the content and advertising you see.
Visit our Privacy Policy to learn more. By continuing to use the site, you agree to this use of cookies and data.
  • In Hungary
  • List of Countries
  • For 7 days
  • Water Temperature
  • Satellite Maps
  • Weather Map
  • News
  • Weather Widgets
  • user-avatar
    Login

    Hourly Weather Horol

    Today, 21 April, Sunday

    Time Temperature Precipitation Wind Pressure Humidity
    00:00 +10°C° 0 mm 0 mps 758 mmHg 49%
    01:00 +10°C° 0 mm 0 mps 757 mmHg 49%
    02:00 +10°C° 0 mm 1 mps 757 mmHg 49%
    03:00 +10°C° 0 mm 1 mps 757 mmHg 49%
    04:00 +10°C° 0 mm 1 mps 757 mmHg 50%
    05:00 +9°C° 0 mm 1 mps 757 mmHg 51%
    06:00 +10°C° 0 mm 2 mps 757 mmHg 49%
    07:00 +12°C° 0 mm 2 mps 757 mmHg 47%
    08:00 +13°C° 0 mm 2 mps 757 mmHg 43%
    09:00 +13°C° 0 mm 2 mps 757 mmHg 39%
    10:00 +13°C° 0 mm 3 mps 758 mmHg 35%
    11:00 +14°C° 0 mm 3 mps 758 mmHg 30%
    12:00 +14°C° 0 mm 3 mps 757 mmHg 31%
    13:00 +14°C° 0 mm 3 mps 757 mmHg 32%
    14:00 +14°C° 0 mm 3 mps 757 mmHg 32%
    15:00 +14°C° 0 mm 3 mps 757 mmHg 34%
    16:00 +14°C° 0 mm 3 mps 757 mmHg 35%
    17:00 +13°C° 0 mm 3 mps 757 mmHg 36%
    18:00 +12°C° 0 mm 3 mps 757 mmHg 40%
    19:00 +12°C° 0 mm 2 mps 758 mmHg 44%
    20:00 +9°C° 0 mm 2 mps 758 mmHg 47%
    21:00 +9°C° 0 mm 2 mps 758 mmHg 48%
    22:00 +9°C° 0 mm 2 mps 758 mmHg 48%
    23:00 +8°C° 0 mm 2 mps 759 mmHg 49%

    Tomorrow, 22 April, Monday

    Time Temperature Precipitation Wind Pressure Humidity
    00:00 +8°C° 0 mm 2 mps 759 mmHg 49%
    01:00 +8°C° 0 mm 2 mps 759 mmHg 50%
    02:00 +8°C° 0 mm 2 mps 759 mmHg 50%
    03:00 +7°C° 0 mm 2 mps 759 mmHg 52%
    04:00 +7°C° 0 mm 2 mps 759 mmHg 53%
    05:00 +6°C° 0 mm 2 mps 759 mmHg 55%
    06:00 +8°C° 0 mm 3 mps 760 mmHg 52%
    07:00 +10°C° 0 mm 3 mps 760 mmHg 49%
    08:00 +11°C° 0 mm 3 mps 760 mmHg 46%
    09:00 +12°C° 0 mm 4 mps 760 mmHg 42%
    10:00 +13°C° 0 mm 4 mps 760 mmHg 38%
    11:00 +15°C° 0 mm 4 mps 760 mmHg 34%
    12:00 +15°C° 0 mm 4 mps 760 mmHg 34%
    13:00 +16°C° 0 mm 3 mps 760 mmHg 35%
    14:00 +16°C° 0 mm 3 mps 760 mmHg 35%
    15:00 +16°C° 0 mm 3 mps 760 mmHg 36%
    16:00 +16°C° 0 mm 3 mps 760 mmHg 37%
    17:00 +15°C° 0 mm 2 mps 760 mmHg 39%
    18:00 +14°C° 0 mm 2 mps 760 mmHg 42%
    19:00 +12°C° 0 mm 2 mps 760 mmHg 46%
    20:00 +10°C° 0 mm 2 mps 761 mmHg 50%
    21:00 +10°C° 0 mm 2 mps 761 mmHg 51%
    22:00 +9°C° 0 mm 2 mps 761 mmHg 53%
    23:00 +9°C° 0 mm 2 mps 761 mmHg 54%

    Day after tomorrow, 23 April, Tuesday

    Time Temperature Precipitation Wind Pressure Humidity
    00:00 +9°C° 0 mm 2 mps 761 mmHg 56%
    01:00 +8°C° 0 mm 2 mps 761 mmHg 59%
    02:00 +8°C° 0 mm 2 mps 761 mmHg 61%
    03:00 +8°C° 0 mm 2 mps 762 mmHg 61%
    04:00 +9°C° 0 mm 2 mps 762 mmHg 62%
    05:00 +9°C° 0 mm 2 mps 762 mmHg 63%
    06:00 +10°C° 0 mm 2 mps 762 mmHg 61%
    07:00 +12°C° 0 mm 2 mps 762 mmHg 59%
    08:00 +12°C° 0 mm 3 mps 763 mmHg 57%
    09:00 +13°C° 0 mm 3 mps 763 mmHg 51%
    10:00 +14°C° 0 mm 3 mps 763 mmHg 46%
    11:00 +16°C° 0 mm 3 mps 763 mmHg 40%
    12:00 +16°C° 0 mm 3 mps 763 mmHg 40%
    13:00 +16°C° 0 mm 3 mps 762 mmHg 40%
    14:00 +17°C° 0 mm 3 mps 762 mmHg 40%
    15:00 +16°C° 0 mm 2 mps 762 mmHg 41%
    16:00 +16°C° 0 mm 2 mps 762 mmHg 41%
    17:00 +16°C° 0 mm 2 mps 762 mmHg 42%
    18:00 +15°C° 0 mm 2 mps 762 mmHg 46%
    19:00 +13°C° 0 mm 1 mps 762 mmHg 50%
    20:00 +12°C° 0 mm 1 mps 762 mmHg 54%
    21:00 +11°C° 0 mm 1 mps 763 mmHg 55%
    22:00 +11°C° 0 mm 1 mps 763 mmHg 56%
    23:00 +11°C° 0 mm 1 mps 763 mmHg 57%

    24 April, Wednesday

    Time Temperature Precipitation Wind Pressure Humidity
    00:00 +10°C° 0 mm 1 mps 763 mmHg 58%
    01:00 +10°C° 0 mm 1 mps 763 mmHg 59%
    02:00 +9°C° 0 mm 1 mps 763 mmHg 61%
    03:00 +9°C° 0 mm 1 mps 763 mmHg 62%
    04:00 +9°C° 0 mm 1 mps 763 mmHg 63%
    05:00 +9°C° 0 mm 1 mps 763 mmHg 64%
    06:00 +11°C° 0 mm 1 mps 763 mmHg 59%
    07:00 +13°C° 0 mm 1 mps 763 mmHg 53%
    08:00 +15°C° 0 mm 1 mps 764 mmHg 48%
    09:00 +16°C° 0 mm 2 mps 763 mmHg 44%
    10:00 +17°C° 0 mm 2 mps 763 mmHg 41%
    11:00 +18°C° 0 mm 2 mps 763 mmHg 37%
    12:00 +18°C° 0 mm 2 mps 763 mmHg 36%
    13:00 +19°C° 0 mm 2 mps 763 mmHg 35%
    14:00 +19°C° 0 mm 2 mps 762 mmHg 34%
    15:00 +19°C° 0 mm 2 mps 762 mmHg 35%
    16:00 +20°C° 0 mm 1 mps 762 mmHg 36%
    17:00 +20°C° 0 mm 1 mps 762 mmHg 37%
    18:00 +18°C° 0 mm 1 mps 762 mmHg 41%
    19:00 +15°C° 0 mm 0 mps 762 mmHg 45%
    20:00 +13°C° 0 mm 0 mps 762 mmHg 49%
    21:00 +12°C° 0 mm 0 mps 762 mmHg 50%
    22:00 +12°C° 0 mm 0 mps 762 mmHg 52%
    23:00 +11°C° 0 mm 0 mps 762 mmHg 53%

    25 April, Thursday

    Time Temperature Precipitation Wind Pressure Humidity
    00:00 +11°C° 0 mm 0 mps 762 mmHg 54%
    01:00 +12°C° 0 mm 1 mps 763 mmHg 55%
    02:00 +12°C° 0 mm 1 mps 763 mmHg 56%
    03:00 +11°C° 0 mm 1 mps 763 mmHg 57%
    04:00 +11°C° 0 mm 1 mps 763 mmHg 59%
    05:00 +11°C° 0 mm 1 mps 763 mmHg 60%
    06:00 +13°C° 0 mm 1 mps 763 mmHg 56%
    07:00 +15°C° 0 mm 1 mps 763 mmHg 51%
    08:00 +18°C° 0 mm 1 mps 763 mmHg 47%
    09:00 +19°C° 0 mm 1 mps 763 mmHg 44%
    10:00 +20°C° 0 mm 1 mps 763 mmHg 40%
    11:00 +21°C° 0 mm 2 mps 763 mmHg 36%
    12:00 +21°C° 0 mm 2 mps 762 mmHg 36%
    13:00 +21°C° 0 mm 2 mps 762 mmHg 36%
    14:00 +23°C° 0 mm 2 mps 761 mmHg 36%
    15:00 +23°C° 0 mm 2 mps 761 mmHg 37%
    16:00 +23°C° 0 mm 2 mps 761 mmHg 39%
    17:00 +22°C° 0 mm 1 mps 760 mmHg 41%
    18:00 +21°C° 0 mm 1 mps 760 mmHg 45%
    19:00 +19°C° 0 mm 1 mps 760 mmHg 48%
    20:00 +16°C° 0 mm 0 mps 760 mmHg 51%
    21:00 +15°C° 0 mm 0 mps 760 mmHg 53%
    22:00 +15°C° 0 mm 0 mps 760 mmHg 55%
    23:00 +15°C° 0 mm 1 mps 760 mmHg 56%

    26 April, Friday

    Time Temperature Precipitation Wind Pressure Humidity
    00:00 +15°C° 0 mm 1 mps 759 mmHg 59%
    01:00 +14°C° 0 mm 1 mps 759 mmHg 61%
    02:00 +14°C° 0 mm 1 mps 759 mmHg 63%
    03:00 +14°C° 0 mm 1 mps 759 mmHg 65%
    04:00 +13°C° 0 mm 1 mps 759 mmHg 67%
    05:00 +13°C° 0 mm 1 mps 759 mmHg 69%
    06:00 +15°C° 0 mm 1 mps 759 mmHg 64%
    07:00 +17°C° 0 mm 2 mps 759 mmHg 59%
    08:00 +19°C° 0 mm 2 mps 759 mmHg 54%
    09:00 +20°C° 0 mm 2 mps 758 mmHg 50%
    10:00 +22°C° 0 mm 3 mps 758 mmHg 46%
    11:00 +24°C° 0 mm 3 mps 758 mmHg 42%
    12:00 +24°C° 0 mm 3 mps 757 mmHg 41%
    13:00 +24°C° 0 mm 3 mps 757 mmHg 41%
    14:00 +24°C° 0 mm 3 mps 756 mmHg 41%
    15:00 +24°C° 0 mm 3 mps 756 mmHg 44%
    16:00 +24°C° 0 mm 2 mps 755 mmHg 46%
    17:00 +23°C° 0 mm 2 mps 755 mmHg 48%
    18:00 +21°C° 0 mm 2 mps 755 mmHg 52%
    19:00 +19°C° 0 mm 2 mps 755 mmHg 55%
    20:00 +18°C° 0 mm 1 mps 755 mmHg 59%
    21:00 +17°C° 0 mm 2 mps 754 mmHg 60%
    22:00 +16°C° 0 mm 2 mps 754 mmHg 62%
    23:00 +16°C° 0 mm 2 mps 754 mmHg 63%
    Show more